Location: Bu�n Treun
(12.1333°N, 108.3167°E)
Time: 09:27:29
(UTC+00:00)

BEESAT - Pass Details

Date: 28 September 2021
Orbit: 699 x 709 km, 98.6° (Epoch: 18 October)

Event Time Altitude Azimuth Distance (km) Brightness Sun altitude
Rises 12:34:14 0° 358° (N) 3,071 ? -29.0°
Reaches altitude 10° 12:36:37 10° 349° (N) 2,154 ? -29.6°
Maximum altitude 12:40:54 35° 284° (WNW) 1,115 ? -30.7°
Drops below altitude 10° 12:45:11 10° 219° (SW) 2,156 ? -31.7°
Sets 12:47:35 0° 210° (SSW) 3,075 ? -32.3°
